Location: Howard City Library
(37.4684°N, 96.2639°W)
Time: 09:16:50
(UTC+00:00)

NOSS 3-1 (A) - Pass Details

Date: 18 February 2020
Orbit: 761 x 1452 km, 63.4° (Epoch: 26 March)

Event Time Altitude Azimuth Distance (km) Brightness Sun altitude
Rises 02:27:20 0° 226° (SW) 3,242 6.8 -28.6°
Reaches altitude 10° 02:29:40 10° 231° (SW) 2,356 6.0 -29.0°
Maximum altitude 02:34:55 53° 308° (NW) 1,050 3.8 -30.1°
Enters shadow 02:36:34 40° 356° (N) 1,273 4.1 -30.4°
